Location: Broletto
(44.6000°N, 10.5833°E)
Time: 08:08:52
(UTC+00:00)

Resurs 1-3 - Pass Details

Date: 18 April 2021
Orbit: 629 x 633 km, 97.9° (Epoch: 06 May)

Event Time Altitude Azimuth Distance (km) Brightness Sun altitude
Exits shadow 19:23:13 13° 160° (SSE) 1,826 5.5 -13.3°
Maximum altitude 19:27:08 78° 76° (ENE) 650 3.5 -13.9°
Drops below altitude 10° 19:31:33 10° 350° (N) 2,022 6.8 -14.6°
Sets 19:33:45 0° 349° (N) 2,934 7.7 -14.9°
